QPF
0.00 0.00 0.01 0.00 0.00 0.00 0.00 0.00 0.00 0.00 0.00 0.00 0.00 0.00 0.00 0.01 0.01 0.00 0.01 0.01 0.01 0.01 0.01 0.01 0.01 0.01 0.00 0.00 0.00 0.01 0.00 0.00 0.00 0.00 0.00 0.00 0.00 0.00 0.00 0.00 0.00 0.00 0.00 0.00
0.00 0.00 0.01 0.00 0.00 0.00 0.00 0.00 0.00 0.00 0.00 0.00 0.00 0.00 0.00 0.01 0.01 0.01 0.02 0.01 0.01 0.01 0.00 0.01 0.01 0.01 0.00 0.00 0.00 0.00 0.00 0.00 0.00 0.00 0.00 0.00 0.00 0.00 0.00 0.00 0.00 0.00 0.00 0.00
0.01 0.01 0.01 0.01 0.00 0.00 0.00 0.00 0.00 0.00 0.00 0.00 0.00 0.00 0.00 0.00 0.01 0.01 0.02 0.02 0.02 0.01 0.01 0.01 0.01 0.01 0.00 0.00 0.00 0.00 0.00 0.00 0.00 0.00 0.00 0.00 0.00 0.00 0.00 0.00 0.00 0.00 0.00 0.00
0.01 0.01 0.01 0.01 0.00 0.00 0.00 0.00 0.00 0.00 0.00 0.00 0.00 0.00 0.00 0.01 0.00 0.01 0.01 0.01 0.02 0.02 0.01 0.01 0.01 0.00 0.00 0.00 0.00 0.00 0.00 0.00 0.00 0.00 0.00 0.00 0.00 0.00 0.00 0.00 0.00 0.00 0.00 0.00
0.01 0.01 0.00 0.01 0.01 0.00 0.00 0.00 0.00 0.00 0.00 0.00 0.00 0.00 0.00 0.00 0.00 0.00 0.00 0.00 0.01 0.01 0.01 0.01 0.01 0.00 0.00 0.00 0.00 0.00 0.00 0.01 0.00 0.00 0.00 0.00 0.00 0.00 0.00 0.00 0.00 0.00 0.00 0.00
0.01 0.01 0.00 0.01 0.01 0.00 0.00 0.00 0.00 0.00 0.00 0.00 0.00 0.00 0.00 0.00 0.00 0.00 0.00 0.00 0.01 0.01 0.00 0.00 0.00 0.00 0.00 0.00 0.00 0.00 0.00 0.01 0.01 0.00 0.00 0.00 0.00 0.01 0.01 0.01 0.00 0.00 0.00 0.00
0.01 0.01 0.01 0.01 0.00 0.00 0.00 0.00 0.00 0.00 0.00 0.00 0.00 0.00 0.00 0.00 0.00 0.00 0.00 0.00 0.01 0.01 0.01 0.01 0.00 0.00 0.00 0.00 0.00 0.00 0.00 0.01 0.01 0.01 0.00 0.00 0.01 0.01 0.01 0.01 0.01 0.00 0.00 0.00
0.01 0.01 0.01 0.00 0.00 0.00 0.00 0.00 0.00 0.00 0.00 0.00 0.00 0.00 0.00 0.00 0.00 0.00 0.01 0.00 0.01 0.01 0.01 0.01 0.01 0.01 0.01 0.01 0.01 0.01 0.00 0.01 0.01 0.01 0.01 0.01 0.01 0.01 0.01 0.01 0.01 0.01 0.01 0.00
0.00 0.00 0.00 0.00 0.00 0.00 0.00 0.00 0.00 0.00 0.00 0.00 0.00 0.00 0.00 0.00 0.00 0.00 0.00 0.00 0.00 0.00 0.00 0.00 0.00 0.01 0.01 0.01 0.02 0.01 0.00 0.00 0.01 0.01 0.01 0.01 0.01 0.01 0.01 0.01 0.01 0.01 0.00 0.00
0.00 0.00 0.00 0.00 0.00 0.00 0.00 0.00 0.00 0.00 0.00 0.00 0.00 0.00 0.00 0.00 0.00 0.00 0.00 0.00 0.00 0.00 0.00 0.00 0.00 0.01 0.01 0.02 0.01 0.01 0.01 0.00 0.00 0.00 0.01 0.01 0.01 0.01 0.00 0.01 0.01 0.01 0.01 0.01
0.00 0.00 0.00 0.00 0.00 0.00 0.00 0.00 0.00 0.00 0.00 0.00 0.00 0.00 0.00 0.00 0.00 0.00 0.00 0.00 0.00 0.00 0.00 0.00 0.00 0.00 0.01 0.01 0.01 0.01 0.01 0.01 0.00 0.00 0.00 0.00 0.00 0.00 0.00 0.00 0.01 0.01 0.01 0.01
0.00 0.00 0.00 0.00 0.00 0.00 0.00 0.00 0.00 0.00 0.00 0.00 0.00 0.00 0.00 0.00 0.00 0.00 0.00 0.00 0.01 0.01 0.00 0.00 0.00 0.00 0.00 0.00 0.01 0.01 0.01 0.01 0.01 0.00 0.00 0.00 0.00 0.00 0.00 0.00 0.00 0.00 0.00 0.01
0.00 0.00 0.00 0.00 0.00 0.00 0.00 0.00 0.00 0.00 0.00 0.00 0.00 0.00 0.00 0.00 0.00 0.00 0.00 0.00 0.01 0.01 0.01 0.01 0.01 0.01 0.01 0.00 0.01 0.01 0.01 0.01 0.00 0.00 0.00 0.00 0.00 0.00 0.00 0.00 0.00 0.00 0.00 0.00
0.00 0.00 0.00 0.00 0.00 0.00 0.00 0.00 0.00 0.00 0.00 0.00 0.00 0.00 0.00 0.00 0.00 0.00 0.00 0.00 0.00 0.01 0.01 0.01 0.01 0.01 0.01 0.00 0.00 0.00 0.01 0.02 0.01 0.00 0.00 0.00 0.00 0.00 0.00 0.00 0.00 0.00 0.00 0.00
0.00 0.00 0.00 0.00 0.00 0.00 0.00 0.00 0.00 0.00 0.00 0.00 0.00 0.00 0.00 0.00 0.00 0.00 0.00 0.00 0.00 0.01 0.01 0.01 0.01 0.00 0.00 0.00 0.00 0.00 0.00 0.00 0.01 0.01 0.01 0.00 0.00 0.00 0.00 0.00 0.00 0.00 0.00 0.00
0.00 0.00 0.00 0.00 0.00 0.00 0.00 0.00 0.00 0.00 0.00 0.00 0.00 0.00 0.00 0.00 0.00 0.00 0.00 0.00 0.00 0.00 0.00 0.00 0.00 0.00 0.00 0.00 0.00 0.00 0.00 0.00 0.00 0.00 0.01 0.01 0.01 0.00 0.00 0.00 0.01 0.01 0.01 0.01
0.00 0.01 0.00 0.00 0.00 0.00 0.00 0.00 0.00 0.00 0.00 0.00 0.00 0.00 0.00 0.00 0.00 0.00 0.00 0.00 0.00 0.00 0.00 0.00 0.00 0.00 0.00 0.00 0.00 0.00 0.00 0.00 0.00 0.00 0.01 0.01 0.01 0.01 0.01 0.01 0.01 0.01 0.01 0.01
0.00 0.00 0.00 0.00 0.00 0.00 0.00 0.00 0.00 0.00 0.00 0.00 0.00 0.00 0.00 0.00 0.00 0.00 0.00 0.00 0.00 0.00 0.00 0.00 0.00 0.00 0.00 0.00 0.00 0.00 0.00 0.00 0.00 0.00 0.01 0.01 0.01 0.01 0.01 0.01 0.01 0.01 0.01 0.01
0.00 0.00 0.00 0.00 0.00 0.00 0.00 0.00 0.00 0.00 0.00 0.00 0.00 0.00 0.00 0.00 0.00 0.00 0.00 0.00 0.00 0.00 0.00 0.00 0.00 0.00 0.00 0.00 0.00 0.00 0.00 0.00 0.00 0.00 0.00 0.00 0.01 0.01 0.01 0.01 0.01 0.01 0.01 0.00
0.00 0.00 0.00 0.00 0.00 0.00 0.00 0.00 0.00 0.00 0.00 0.00 0.00 0.00 0.00 0.00 0.00 0.00 0.00 0.00 0.00 0.01 0.01 0.01 0.00 0.00 0.00 0.00 0.00 0.00 0.00 0.00 0.00 0.00 0.00 0.00 0.00 0.00 0.00 0.00 0.00 0.00 0.00 0.00
0.00 0.00 0.00 0.00 0.00 0.00 0.00 0.00 0.00 0.00 0.00 0.00 0.00 0.00 0.00 0.00 0.00 0.00 0.00 0.00 0.00 0.00 0.00 0.00 0.00 0.00 0.00 0.00 0.00 0.00 0.00 0.00 0.00 0.00 0.00 0.00 0.00 0.00 0.00 0.01 0.01 0.00 0.00 0.00
0.00 0.00 0.00 0.00 0.00 0.00 0.00 0.00 0.00 0.00 0.00 0.00 0.00 0.00 0.00 0.00 0.00 0.00 0.00 0.00 0.00 0.00 0.00 0.00 0.00 0.00 0.00 0.00 0.00 0.00 0.00 0.00 0.00 0.00 0.00 0.00 0.00 0.00 0.00 0.00 0.00 0.01 0.01 0.01
0.00 0.00 0.00 0.00 0.00 0.01 0.01 0.01 0.01 0.00 0.00 0.00 0.00 0.00 0.00 0.00 0.00 0.00 0.00 0.00 0.00 0.00 0.00 0.00 0.00 0.00 0.00 0.00 0.00 0.00 0.00 0.00 0.00 0.00 0.00 0.00 0.00 0.00 0.00 0.00 0.01 0.01 0.01 0.01
0.01 0.00 0.00 0.01 0.01 0.01 0.01 0.01 0.01 0.01 0.00 0.00 0.00 0.00 0.00 0.00 0.00 0.00 0.00 0.00 0.00 0.00 0.00 0.00 0.00 0.00 0.00 0.00 0.00 0.00 0.00 0.00 0.00 0.00 0.00 0.00 0.00 0.00 0.00 0.00 0.01 0.01 0.01 0.01
0.01 0.01 0.00 0.00 0.01 0.01 0.01 0.01 0.01 0.00 0.00 0.00 0.00 0.00 0.00 0.00 0.00 0.00 0.00 0.00 0.00 0.00 0.00 0.00 0.00 0.00 0.00 0.00 0.00 0.00 0.00 0.00 0.00 0.00 0.00 0.00 0.00 0.00 0.00 0.01 0.01 0.01 0.01 0.01
0.01 0.01 0.01 0.01 0.00 0.00 0.00 0.00 0.00 0.00 0.00 0.00 0.00 0.00 0.00 0.00 0.00 0.00 0.00 0.00 0.00 0.00 0.00 0.00 0.00 0.00 0.00 0.00 0.00 0.00 0.00 0.00 0.00 0.00 0.00 0.00 0.00 0.01 0.01 0.01 0.01 0.01 0.01 0.02
0.02 0.01 0.01 0.01 0.01 0.00 0.00 0.00 0.00 0.00 0.00 0.00 0.00 0.00 0.00 0.00 0.00 0.00 0.00 0.00 0.00 0.00 0.00 0.00 0.00 0.00 0.00 0.00 0.00 0.00 0.00 0.00 0.00 0.00 0.01 0.01 0.01 0.01 0.01 0.01 0.01 0.02 0.02 0.02
MSLP
1017.10 1017.37 1017.50 1017.46 1017.26 1016.89 1016.36 1015.73 1015.01 1014.25 1013.52 1012.84 1012.28 1011.85 1011.59 1011.48 1011.53 1011.71 1012.00 1012.37 1012.78 1013.21 1013.65 1014.09 1014.52 1014.96 1015.40 1015.85 1016.31 1016.78 1017.24 1017.70 1018.13 1018.53 1018.90 1019.23 1019.54 1019.82 1020.09 1020.34 1020.59 1020.83 1021.05 1021.25
1016.84 1017.07 1017.14 1017.02 1016.73 1016.27 1015.68 1014.99 1014.26 1013.53 1012.84 1012.23 1011.74 1011.38 1011.16 1011.09 1011.14 1011.29 1011.54 1011.86 1012.23 1012.63 1013.06 1013.51 1013.98 1014.47 1014.97 1015.49 1016.00 1016.51 1017.01 1017.48 1017.92 1018.33 1018.71 1019.06 1019.38 1019.70 1020.01 1020.31 1020.60 1020.88 1021.14 1021.36
1016.46 1016.63 1016.63 1016.43 1016.05 1015.52 1014.88 1014.17 1013.43 1012.73 1012.10 1011.56 1011.15 1010.86 1010.70 1010.65 1010.71 1010.85 1011.07 1011.34 1011.67 1012.05 1012.47 1012.93 1013.43 1013.96 1014.52 1015.09 1015.65 1016.20 1016.73 1017.22 1017.67 1018.08 1018.47 1018.83 1019.18 1019.53 1019.88 1020.23 1020.56 1020.87 1021.15 1021.38
1015.96 1016.06 1015.98 1015.72 1015.27 1014.69 1014.02 1013.30 1012.59 1011.94 1011.38 1010.92 1010.59 1010.38 1010.28 1010.27 1010.34 1010.47 1010.66 1010.90 1011.20 1011.54 1011.94 1012.40 1012.92 1013.47 1014.06 1014.67 1015.26 1015.84 1016.38 1016.88 1017.34 1017.76 1018.16 1018.54 1018.91 1019.29 1019.67 1020.05 1020.41 1020.75 1021.05 1021.30
1015.37 1015.39 1015.23 1014.90 1014.41 1013.81 1013.14 1012.45 1011.79 1011.21 1010.73 1010.37 1010.13 1010.00 1009.97 1010.00 1010.09 1010.23 1010.40 1010.61 1010.86 1011.17 1011.54 1011.98 1012.48 1013.04 1013.63 1014.24 1014.84 1015.43 1015.97 1016.47 1016.93 1017.36 1017.76 1018.14 1018.54 1018.93 1019.34 1019.74 1020.14 1020.50 1020.82 1021.08
1014.69 1014.61 1014.38 1014.00 1013.50 1012.91 1012.27 1011.64 1011.07 1010.58 1010.21 1009.95 1009.82 1009.77 1009.81 1009.89 1010.01 1010.15 1010.30 1010.48 1010.70 1010.96 1011.28 1011.68 1012.14 1012.66 1013.22 1013.81 1014.39 1014.96 1015.49 1015.98 1016.43 1016.86 1017.26 1017.66 1018.06 1018.47 1018.90 1019.32 1019.73 1020.11 1020.45 1020.73
1013.93 1013.75 1013.46 1013.05 1012.56 1012.00 1011.44 1010.90 1010.43 1010.06 1009.81 1009.67 1009.64 1009.69 1009.80 1009.94 1010.08 1010.22 1010.37 1010.51 1010.68 1010.88 1011.15 1011.47 1011.87 1012.33 1012.83 1013.37 1013.91 1014.44 1014.95 1015.42 1015.86 1016.28 1016.68 1017.08 1017.49 1017.92 1018.35 1018.79 1019.22 1019.62 1019.98 1020.29
1013.12 1012.85 1012.50 1012.08 1011.62 1011.13 1010.66 1010.24 1009.90 1009.66 1009.54 1009.52 1009.59 1009.73 1009.91 1010.09 1010.26 1010.41 1010.54 1010.65 1010.77 1010.91 1011.10 1011.35 1011.66 1012.04 1012.47 1012.94 1013.42 1013.90 1014.37 1014.82 1015.24 1015.65 1016.05 1016.46 1016.88 1017.31 1017.75 1018.20 1018.65 1019.07 1019.45 1019.80
1012.30 1011.94 1011.56 1011.15 1010.74 1010.33 1009.97 1009.68 1009.47 1009.37 1009.37 1009.46 1009.63 1009.85 1010.08 1010.31 1010.50 1010.65 1010.76 1010.84 1010.91 1010.99 1011.10 1011.27 1011.50 1011.79 1012.13 1012.53 1012.95 1013.38 1013.80 1014.22 1014.63 1015.03 1015.43 1015.84 1016.26 1016.70 1017.15 1017.61 1018.06 1018.50 1018.92 1019.30
1011.51 1011.09 1010.70 1010.32 1009.97 1009.66 1009.42 1009.25 1009.17 1009.18 1009.29 1009.48 1009.72 1010.00 1010.27 1010.52 1010.73 1010.88 1010.98 1011.03 1011.06 1011.09 1011.14 1011.23 1011.38 1011.59 1011.86 1012.17 1012.53 1012.91 1013.30 1013.69 1014.08 1014.47 1014.86 1015.27 1015.69 1016.13 1016.58 1017.04 1017.51 1017.97 1018.41 1018.83
1010.82 1010.37 1009.98 1009.65 1009.37 1009.16 1009.03 1008.97 1008.99 1009.10 1009.29 1009.54 1009.83 1010.14 1010.44 1010.70 1010.91 1011.06 1011.15 1011.19 1011.19 1011.19 1011.19 1011.23 1011.32 1011.46 1011.66 1011.91 1012.21 1012.54 1012.89 1013.25 1013.62 1014.00 1014.38 1014.78 1015.20 1015.63 1016.08 1016.54 1017.02 1017.49 1017.95 1018.40
1010.26 1009.82 1009.46 1009.19 1008.99 1008.87 1008.83 1008.85 1008.95 1009.12 1009.36 1009.63 1009.94 1010.26 1010.56 1010.83 1011.04 1011.19 1011.28 1011.31 1011.31 1011.29 1011.27 1011.28 1011.32 1011.42 1011.57 1011.77 1012.02 1012.30 1012.62 1012.95 1013.29 1013.64 1014.01 1014.39 1014.79 1015.21 1015.65 1016.11 1016.58 1017.05 1017.53 1018.00
1009.84 1009.44 1009.15 1008.94 1008.82 1008.78 1008.80 1008.89 1009.03 1009.23 1009.47 1009.75 1010.05 1010.36 1010.65 1010.91 1011.12 1011.27 1011.37 1011.42 1011.43 1011.41 1011.39 1011.39 1011.41 1011.48 1011.59 1011.75 1011.95 1012.19 1012.46 1012.75 1013.06 1013.39 1013.73 1014.09 1014.46 1014.86 1015.28 1015.72 1016.18 1016.65 1017.12 1017.60
1009.54 1009.22 1009.00 1008.88 1008.83 1008.85 1008.92 1009.04 1009.20 1009.39 1009.62 1009.88 1010.16 1010.44 1010.71 1010.96 1011.18 1011.35 1011.47 1011.54 1011.57 1011.58 1011.57 1011.57 1011.58 1011.62 1011.70 1011.83 1011.99 1012.18 1012.41 1012.65 1012.92 1013.20 1013.51 1013.83 1014.17 1014.54 1014.93 1015.34 1015.78 1016.24 1016.70 1017.17
1009.32 1009.10 1008.97 1008.93 1008.95 1009.01 1009.11 1009.24 1009.40 1009.58 1009.78 1010.01 1010.26 1010.52 1010.78 1011.03 1011.25 1011.44 1011.59 1011.70 1011.76 1011.79 1011.81 1011.81 1011.82 1011.85 1011.90 1011.98 1012.09 1012.24 1012.41 1012.60 1012.82 1013.06 1013.31 1013.59 1013.90 1014.23 1014.58 1014.97 1015.38 1015.81 1016.25 1016.69
1009.14 1009.03 1009.00 1009.02 1009.10 1009.20 1009.31 1009.45 1009.59 1009.75 1009.93 1010.13 1010.36 1010.61 1010.87 1011.13 1011.37 1011.59 1011.77 1011.92 1012.01 1012.07 1012.10 1012.11 1012.11 1012.12 1012.14 1012.18 1012.24 1012.33 1012.44 1012.58 1012.75 1012.93 1013.14 1013.38 1013.64 1013.93 1014.25 1014.60 1014.98 1015.37 1015.78 1016.20
1008.96 1008.96 1009.01 1009.11 1009.22 1009.35 1009.48 1009.61 1009.74 1009.89 1010.06 1010.26 1010.48 1010.74 1011.01 1011.29 1011.57 1011.82 1012.04 1012.21 1012.34 1012.42 1012.46 1012.47 1012.45 1012.43 1012.41 1012.40 1012.41 1012.45 1012.51 1012.60 1012.71 1012.85 1013.01 1013.21 1013.43 1013.68 1013.96 1014.28 1014.61 1014.97 1015.35 1015.73
1008.78 1008.88 1009.00 1009.15 1009.30 1009.45 1009.59 1009.72 1009.86 1010.01 1010.19 1010.40 1010.64 1010.93 1011.23 1011.55 1011.86 1012.15 1012.40 1012.61 1012.75 1012.84 1012.88 1012.87 1012.83 1012.78 1012.72 1012.67 1012.63 1012.62 1012.63 1012.68 1012.75 1012.85 1012.98 1013.14 1013.33 1013.54 1013.79 1014.06 1014.36 1014.68 1015.01 1015.35
1008.65 1008.82 1009.00 1009.18 1009.36 1009.52 1009.67 1009.82 1009.97 1010.14 1010.35 1010.60 1010.89 1011.21 1011.56 1011.92 1012.27 1012.60 1012.88 1013.10 1013.25 1013.34 1013.37 1013.34 1013.28 1013.19 1013.09 1013.00 1012.93 1012.88 1012.87 1012.88 1012.93 1013.01 1013.11 1013.25 1013.41 1013.60 1013.81 1014.05 1014.30 1014.58 1014.87 1015.17
1008.62 1008.84 1009.05 1009.26 1009.45 1009.63 1009.79 1009.96 1010.15 1010.36 1010.61 1010.91 1011.25 1011.63 1012.03 1012.43 1012.82 1013.17 1013.47 1013.70 1013.85 1013.92 1013.93 1013.89 1013.80 1013.68 1013.57 1013.45 1013.36 1013.30 1013.27 1013.27 1013.31 1013.38 1013.48 1013.60 1013.74 1013.91 1014.09 1014.29 1014.51 1014.74 1014.99 1015.25
1008.76 1009.00 1009.24 1009.46 1009.66 1009.85 1010.04 1010.23 1010.46 1010.72 1011.02 1011.37 1011.77 1012.20 1012.64 1013.08 1013.49 1013.86 1014.16 1014.39 1014.53 1014.59 1014.58 1014.52 1014.42 1014.29 1014.17 1014.05 1013.96 1013.90 1013.87 1013.89 1013.93 1014.00 1014.10 1014.21 1014.34 1014.49 1014.64 1014.81 1014.99 1015.19 1015.39 1015.61
1009.11 1009.37 1009.62 1009.84 1010.05 1010.26 1010.47 1010.70 1010.96 1011.27 1011.62 1012.02 1012.46 1012.93 1013.40 1013.86 1014.29 1014.65 1014.95 1015.16 1015.29 1015.34 1015.32 1015.25 1015.14 1015.02 1014.90 1014.80 1014.72 1014.68 1014.68 1014.71 1014.77 1014.85 1014.95 1015.07 1015.19 1015.32 1015.45 1015.59 1015.74 1015.90 1016.07 1016.26
1009.69 1009.96 1010.21 1010.44 1010.66 1010.88 1011.11 1011.37 1011.67 1012.02 1012.41 1012.85 1013.32 1013.80 1014.29 1014.74 1015.16 1015.51 1015.79 1015.98 1016.09 1016.13 1016.11 1016.04 1015.95 1015.85 1015.75 1015.67 1015.63 1015.62 1015.64 1015.69 1015.76 1015.86 1015.97 1016.08 1016.20 1016.31 1016.43 1016.55 1016.68 1016.81 1016.96 1017.13
1010.45 1010.73 1010.99 1011.23 1011.47 1011.70 1011.96 1012.24 1012.57 1012.94 1013.36 1013.81 1014.28 1014.77 1015.24 1015.68 1016.06 1016.39 1016.64 1016.82 1016.91 1016.95 1016.93 1016.88 1016.81 1016.73 1016.66 1016.62 1016.60 1016.62 1016.66 1016.73 1016.82 1016.92 1017.03 1017.14 1017.25 1017.36 1017.47 1017.58 1017.69 1017.82 1017.96 1018.12
1011.33 1011.63 1011.90 1012.16 1012.40 1012.66 1012.94 1013.24 1013.59 1013.97 1014.39 1014.83 1015.30 1015.76 1016.20 1016.60 1016.95 1017.24 1017.47 1017.62 1017.71 1017.75 1017.74 1017.71 1017.66 1017.62 1017.58 1017.57 1017.58 1017.61 1017.67 1017.75 1017.84 1017.93 1018.04 1018.14 1018.24 1018.35 1018.45 1018.56 1018.68 1018.81 1018.96 1019.14
1012.23 1012.55 1012.84 1013.12 1013.39 1013.66 1013.96 1014.28 1014.63 1015.01 1015.42 1015.85 1016.28 1016.70 1017.10 1017.46 1017.78 1018.03 1018.23 1018.36 1018.45 1018.49 1018.50 1018.49 1018.47 1018.45 1018.44 1018.45 1018.47 1018.52 1018.57 1018.64 1018.72 1018.80 1018.89 1018.98 1019.07 1019.17 1019.29 1019.41 1019.55 1019.70 1019.88 1020.07
1013.05 1013.39 1013.71 1014.01 1014.30 1014.60 1014.91 1015.24 1015.60 1015.97 1016.36 1016.76 1017.16 1017.54 1017.90 1018.22 1018.49 1018.72 1018.89 1019.02 1019.11 1019.16 1019.19 1019.20 1019.20 1019.21 1019.21 1019.23 1019.25 1019.28 1019.32 1019.37 1019.42 1019.48 1019.54 1019.62 1019.71 1019.81 1019.93 1020.08 1020.24 1020.43 1020.64 1020.87
Thickness
5690 5691 5690 5688 5686 5685 5684 5688 5688 5696 5700 5710 5717 5720 5724 5727 5730 5730 5731 5731 5731 5729 5729 5728 5727 5727 5728 5726 5723 5721 5719 5718 5718 5718 5716 5714 5712 5711 5710 5709 5708 5707 5707 5706
5685 5689 5689 5686 5690 5690 5689 5692 5694 5697 5702 5719 5722 5725 5725 5727 5727 5727 5729 5730 5731 5731 5731 5729 5727 5727 5727 5725 5723 5721 5719 5718 5717 5716 5714 5712 5711 5709 5708 5707 5706 5705 5704 5703
5682 5687 5684 5681 5695 5695 5695 5699 5699 5698 5709 5718 5718 5719 5722 5724 5725 5727 5730 5731 5731 5732 5733 5732 5730 5729 5727 5726 5724 5721 5719 5718 5715 5714 5712 5711 5709 5707 5705 5704 5703 5701 5700 5699
5680 5679 5667 5694 5709 5706 5700 5702 5707 5709 5714 5717 5718 5720 5723 5725 5725 5728 5730 5731 5732 5733 5733 5733 5733 5730 5729 5726 5722 5720 5719 5716 5714 5712 5709 5708 5706 5704 5703 5702 5700 5699 5697 5697
5676 5673 5682 5697 5704 5702 5699 5702 5713 5712 5714 5717 5720 5721 5722 5726 5728 5729 5732 5733 5733 5734 5733 5733 5732 5730 5727 5723 5721 5719 5718 5716 5714 5712 5709 5707 5705 5704 5703 5700 5699 5697 5695 5693
5673 5669 5672 5694 5706 5709 5703 5698 5717 5718 5717 5718 5717 5713 5718 5725 5727 5728 5730 5731 5732 5732 5731 5729 5729 5727 5724 5721 5720 5719 5718 5716 5714 5712 5709 5707 5705 5704 5701 5698 5696 5695 5693 5692
5671 5673 5686 5704 5705 5703 5691 5701 5717 5720 5721 5720 5719 5721 5724 5725 5724 5725 5726 5728 5729 5728 5726 5725 5726 5724 5721 5721 5719 5720 5718 5715 5712 5710 5708 5706 5704 5701 5698 5695 5693 5692 5690 5689
5673 5670 5681 5702 5700 5700 5707 5717 5718 5720 5721 5720 5720 5721 5721 5720 5721 5722 5722 5723 5724 5724 5722 5722 5722 5720 5719 5718 5719 5717 5714 5711 5709 5707 5706 5703 5700 5697 5695 5692 5689 5688 5687 5686
5686 5689 5700 5703 5705 5708 5712 5713 5717 5718 5719 5719 5717 5716 5717 5717 5717 5718 5719 5720 5720 5720 5718 5717 5717 5717 5716 5715 5715 5713 5710 5707 5705 5704 5702 5700 5697 5694 5691 5689 5688 5687 5686 5684
5684 5691 5696 5698 5702 5705 5708 5710 5713 5716 5717 5716 5715 5714 5714 5714 5714 5714 5715 5715 5716 5715 5714 5713 5713 5713 5713 5712 5711 5709 5706 5704 5702 5700 5698 5696 5694 5693 5690 5688 5686 5685 5684 5682
5681 5688 5691 5694 5697 5701 5704 5708 5709 5711 5712 5712 5711 5710 5710 5709 5709 5709 5710 5710 5711 5710 5709 5709 5709 5708 5708 5708 5706 5704 5702 5701 5699 5697 5695 5693 5691 5690 5689 5688 5687 5684 5683 5681
5681 5691 5692 5694 5698 5699 5699 5701 5703 5704 5704 5706 5706 5705 5705 5704 5704 5705 5705 5705 5705 5705 5704 5704 5704 5703 5702 5702 5702 5700 5698 5696 5694 5692 5690 5688 5686 5683 5679 5680 5677 5676 5675 5675
5684 5688 5690 5690 5692 5694 5695 5696 5698 5698 5699 5698 5699 5700 5699 5698 5698 5699 5699 5699 5699 5698 5698 5698 5697 5697 5696 5696 5696 5695 5693 5691 5688 5686 5685 5683 5681 5680 5677 5672 5669 5668 5667 5666
5675 5678 5679 5683 5684 5687 5689 5690 5691 5692 5692 5693 5693 5693 5693 5692 5692 5692 5692 5692 5692 5692 5691 5691 5690 5689 5690 5690 5689 5688 5687 5683 5682 5680 5679 5678 5677 5675 5673 5671 5668 5666 5662 5658
5666 5672 5676 5677 5678 5679 5681 5682 5682 5682 5683 5683 5685 5685 5685 5685 5683 5684 5685 5685 5685 5684 5684 5683 5683 5682 5682 5683 5682 5681 5679 5677 5675 5674 5673 5671 5670 5668 5667 5665 5664 5661 5659 5654
5658 5662 5665 5668 5669 5671 5673 5674 5674 5674 5675 5675 5676 5676 5677 5677 5676 5676 5676 5677 5677 5676 5676 5676 5675 5675 5675 5675 5674 5672 5670 5667 5666 5666 5664 5663 5661 5660 5659 5657 5655 5653 5651 5648
5651 5653 5656 5659 5661 5663 5665 5666 5666 5667 5667 5667 5667 5668 5668 5668 5667 5667 5667 5668 5668 5668 5668 5668 5667 5667 5667 5667 5666 5664 5662 5659 5655 5656 5656 5654 5652 5651 5649 5647 5646 5644 5641 5638
5650 5652 5654 5656 5656 5656 5656 5657 5657 5658 5658 5658 5658 5658 5659 5659 5658 5658 5658 5659 5659 5658 5658 5658 5659 5659 5658 5657 5657 5656 5654 5653 5650 5648 5646 5644 5643 5641 5639 5637 5635 5633 5630 5627
5639 5641 5643 5645 5646 5647 5648 5648 5648 5649 5648 5648 5649 5649 5649 5649 5649 5648 5649 5649 5649 5648 5648 5648 5647 5649 5649 5647 5646 5646 5645 5643 5641 5639 5636 5632 5632 5631 5629 5627 5625 5623 5620 5617
5628 5630 5632 5634 5635 5636 5637 5638 5638 5638 5638 5639 5639 5639 5638 5637 5637 5638 5638 5637 5637 5637 5637 5637 5638 5639 5638 5637 5634 5635 5634 5632 5630 5628 5626 5624 5622 5620 5618 5615 5613 5612 5609 5606
5617 5619 5621 5623 5623 5624 5626 5627 5628 5627 5627 5628 5629 5628 5627 5626 5627 5627 5627 5625 5624 5624 5625 5625 5627 5626 5626 5625 5623 5623 5622 5620 5618 5616 5614 5612 5610 5607 5605 5602 5600 5598 5596 5593
5606 5608 5609 5611 5612 5613 5614 5616 5616 5616 5616 5616 5616 5616 5615 5615 5616 5616 5615 5614 5612 5611 5613 5614 5614 5612 5612 5611 5611 5610 5609 5607 5605 5603 5601 5598 5596 5593 5591 5589 5586 5583 5581 5578
5595 5597 5599 5600 5602 5602 5602 5603 5603 5604 5604 5604 5604 5604 5604 5604 5605 5605 5603 5601 5601 5600 5601 5601 5599 5597 5597 5599 5598 5597 5595 5593 5591 5589 5586 5584 5581 5579 5576 5574 5571 5567 5565 5562
5584 5585 5587 5588 5590 5590 5590 5589 5589 5589 5590 5591 5591 5591 5592 5592 5592 5591 5590 5587 5586 5587 5588 5585 5584 5583 5584 5585 5584 5582 5580 5578 5576 5574 5571 5569 5566 5563 5561 5558 5555 5552 5549 5546
5571 5573 5575 5576 5577 5577 5577 5576 5576 5576 5577 5578 5578 5578 5579 5579 5578 5577 5576 5575 5573 5574 5574 5572 5570 5570 5571 5571 5569 5567 5565 5563 5560 5558 5555 5553 5550 5548 5545 5542 5539 5536 5533 5529
5558 5560 5561 5563 5564 5564 5565 5565 5566 5565 5566 5566 5565 5564 5564 5564 5563 5563 5562 5561 5561 5560 5560 5559 5558 5557 5557 5556 5554 5552 5549 5547 5545 5542 5540 5537 5534 5532 5529 5526 5522 5519 5516 5513
5545 5546 5547 5548 5549 5551 5552 5553 5554 5554 5554 5555 5554 5552 5551 5550 5550 5549 5548 5548 5547 5547 5546 5545 5544 5543 5542 5540 5538 5536 5534 5531 5529 5526 5524 5521 5518 5515 5512 5508 5505 5502 5498 5495